Regional Weather Roundup
Issued by NWS

Home | Current Version | Previous Version | Graphics & Text | Print | Product List | Glossary On
Versions: 1 2 3 4 5 6 7 8 9 10 11 12 13 14 15 16 17 18 19 20 21 22 23 24 25 26 27 28 29 30 31 32 33 34 35 36 37 38 39 40 41 42 43 44 45 46 47 48 49 50
002
ASUS43 KDTX 080610
RWRMI
MICHIGAN HOURLY REGIONAL WEATHER ROUNDUP
NATIONAL WEATHER SERVICE DETROIT/PONTIAC MI
100 AM EST MON FEB 08 2016

NOTE: "FAIR" INDICATES FEW OR NO CLOUDS BELOW 12,000 FEET WITH NO
SIGNIFICANT WEATHER AND/OR OBSTRUCTION TO VISIBILITY.

MIZ047>049-052>055-059>063-066>070-074>076-081>083-080700-
SOUTHEAST LOWER MICHIGAN

CITY           SKY/WX    TMP DP  RH WIND       PRES   REMARKS
ADRIAN         MOCLDY    36  31  82 W6        29.70F WCI  31
6HR MIN TEMP:  35; 6HR MAX TEMP:  42;

ALMA           CLOUDY    36  33  88 SW8       29.65S WCI  30
6HR MIN TEMP:  36; 6HR MAX TEMP:  40;

ANN ARBOR      CLOUDY    38  32  79 SW5       29.68F WCI  34
BAD AXE        CLOUDY    37  32  81 CALM      29.66F
CARO           CLOUDY    39  32  75 SW5       29.66S
DETROIT CITY   CLOUDY    42  31  64 SW7       29.68F
6HR MIN TEMP:  42; 6HR MAX TEMP:  47;

DETROIT        CLOUDY    42  32  67 SW9       29.69F
6HR MIN TEMP:  41; 6HR MAX TEMP:  46; 6HR PCP: TRACE;

FLINT          CLOUDY    42  31  64 SW6       29.67F
6HR MIN TEMP:  42; 6HR MAX TEMP:  47;

GROSSE ILE     CLOUDY    43  34  70 SW3       29.67F
HILLSDALE      PTCLDY    35  31  85 W5        29.67F WCI  31
6HR MIN TEMP:  35; 6HR MAX TEMP:  42;

HOWELL         PTCLDY    38  32  79 SW5       29.66F WCI  34

CITY           SKY/WX    TMP DP  RH WIND       PRES   REMARKS
JACKSON        CLOUDY    35  30  82 SW7       29.67F WCI  29
6HR MIN TEMP:  35; 6HR MAX TEMP:  43;

LAMBERTVILLE   CLOUDY    41  33  72 W7        29.70F
6HR MIN TEMP:  41; 6HR MAX TEMP:  47;

LANSING        CLEAR     34  29  82 SW7       29.66F WCI  28
6HR MIN TEMP:  34; 6HR MAX TEMP:  43;

LAPEER         CLOUDY    40  32  73 SW5       29.66F
6HR MIN TEMP:  40; 6HR MAX TEMP:  44;

MASON          PTCLDY    34  31  88 S3        29.66F
MONROE         CLOUDY    40  33  73 SW7       29.68F
6HR MIN TEMP:  40; 6HR MAX TEMP:  47;

MT. CLEMENS    CLOUDY    37  32  82 S7        29.66F WCI  32
6HR MIN TEMP:  37; 6HR MAX TEMP:  46;

PONTIAC        CLOUDY    41  31  67 SW6       29.65F
6HR MIN TEMP:  41; 6HR MAX TEMP:  45;

PORT HOPE        N/A     35  32  88 SE5       29.65F WCI  31
6HR MIN TEMP:  35; 6HR MAX TEMP:  42; 6HR PCP:  0.01;

PORT HURON     CLOUDY    39  32  75 S3        29.68F
TRI CITIES     CLOUDY    39  31  72 S6        29.65F WCI  35
6HR MIN TEMP:  39; 6HR MAX TEMP:  44; 6HR PCP: TRACE;

MIDLAND        CLOUDY    37  30  77 CALM      29.64F
6HR MIN TEMP:  37; 6HR MAX TEMP:  41;

TROY           CLOUDY    43  32  64 SW5       29.68F
SAGINAW HB     CLOUDY    37  32  81 S5        29.65F WCI  34
$$
MIZ043>046-050>051-056>058-064>065-071>073-077>080-080700-
SOUTHWEST LOWER MICHIGAN

CITY           SKY/WX    TMP DP  RH WIND       PRES   REMARKS
BATTLE CREEK   CLEAR     32  27  81 SW7       29.68S WCI  26
6HR MIN TEMP:  31; 6HR MAX TEMP:  42;

BENTON HARBOR  CLEAR     34  28  79 SW7       29.69F WCI  28
6HR MIN TEMP:  33; 6HR MAX TEMP:  41;

BIG RAPIDS     CLOUDY    36  32  87 SW6       29.60F WCI  31
6HR MIN TEMP:  36; 6HR MAX TEMP:  37;

COLDWATER      PTCLDY    32  29  89 W6        29.68F WCI  26
6HR MIN TEMP:  32; 6HR MAX TEMP:  42;

FREMONT        CLOUDY    34  30  86 SW5       29.62F WCI  30
6HR MIN TEMP:  34; 6HR MAX TEMP:  37;

HOLLAND        CLEAR     34  29  82 SW7       29.66F WCI  28
6HR MIN TEMP:  33; 6HR MAX TEMP:  40;

GRAND RAPIDS   CLEAR     33  29  85 SW6       29.65F WCI  28
6HR MIN TEMP:  33; 6HR MAX TEMP:  40;

IONIA          FAIR      32  29  88 SW7       29.65S WCI  26
6HR MIN TEMP:  32; 6HR MAX TEMP:  39;

KALAMAZOO      CLEAR     33  27  78 SW5       29.68F WCI  29
6HR MIN TEMP:  33; 6HR MAX TEMP:  43;

LUDINGTON      CLOUDY    37  31  81 SW8       29.62S WCI  30
6HR MIN TEMP:  36; 6HR MAX TEMP:  38;

MARSHALL       PTCLDY    32  30  90 SW6       29.68R WCI  27
6HR MIN TEMP:  32; 6HR MAX TEMP:  43;

MOUNT PLEASANT CLOUDY    38  32  78 W5        29.62F WCI  34
6HR MIN TEMP:  37; 6HR MAX TEMP:  41;

MUSKEGON       CLEAR     36  28  73 W9        29.64F WCI  29
6HR MIN TEMP:  36; 6HR MAX TEMP:  40;

SOUTH HAVEN    CLEAR     35  31  83 W7        29.68F WCI  29
$$
MIZ016>042-080700-
NORTHERN LOWER MICHIGAN

CITY           SKY/WX    TMP DP  RH WIND       PRES   REMARKS
ALPENA         CLOUDY    33  30  88 SE3       29.62F
6HR MIN TEMP:  33; 6HR MAX TEMP:  40;

BEAVER ISLAND  CLOUDY    37  33  86 SW7       29.58S WCI  32
6HR MIN TEMP:  37; 6HR MAX TEMP:  38;

BELLAIRE       CLOUDY    35  31  85 CALM      29.60F
6HR MIN TEMP:  35; 6HR MAX TEMP:  39;

CADILLAC       PTCLDY    32  30  94 CALM      29.58F
CHARLEVOIX     CLOUDY    37  32  83 S6        29.62S WCI  32
6HR MIN TEMP:  37; 6HR MAX TEMP:  38;

FRANKFORT      CLOUDY    38  33  81 CALM      29.59F
GAYLORD        CLOUDY    34  30  85 S6        29.58F WCI  29
6HR MIN TEMP:  34; 6HR MAX TEMP:  38;

GRAYLING       CLEAR     31  29  94 CALM      29.60F
6HR MIN TEMP:  31; 6HR MAX TEMP:  37;

HARBOR SPRINGS CLOUDY    35  31  88 CALM      29.59S
HOUGHTON LAKE  CLEAR     32  29  88 CALM      29.61F
6HR MIN TEMP:  32; 6HR MAX TEMP:  37;

MANISTEE       MOCLDY    34  28  80 CALM      29.61S
OSCODA         CLOUDY    32  30  91 CALM      29.63F
6HR MIN TEMP:  32; 6HR MAX TEMP:  40;

PELLSTON       CLOUDY    36  31  82 S3        29.59F
6HR MIN TEMP:  36; 6HR MAX TEMP:  39;

ROGERS CITY    CLOUDY    36  29  77 S5        29.62F WCI  32
TRAVERSE CITY  CLOUDY    38  31  76 VRB5      29.58F WCI  34
6HR MIN TEMP:  38; 6HR MAX TEMP:  40;

$$
MIZ007>008-015-080700-
EASTERN UPPER MICHIGAN

CITY           SKY/WX    TMP DP  RH WIND       PRES   REMARKS
KINROSS        CLOUDY    34  34 100 SE3       29.59F
6HR MIN TEMP:  34; 6HR MAX TEMP:  34;

MACKINAC ISLAN CLOUDY    35  31  87 S3        29.58F
6HR MIN TEMP:  32; 6HR MAX TEMP:  36;

NEWBERRY       CLOUDY    33  33  97 S5        29.56S FOG     WCI  29
6HR MIN TEMP:  33; 6HR MAX TEMP:  35;

S. S. MARIE    CLOUDY    34  32  92 SE3       29.59F FOG
6HR MIN TEMP:  33; 6HR MAX TEMP:  34;

MUNISING         N/A     35  32  88 S7        29.54S WCI  29
6HR MIN TEMP:  34; 6HR MAX TEMP:  35;

$$
MIZ004>006-011>014-085-080700-
CENTRAL UPPER MICHIGAN

CITY           SKY/WX    TMP DP  RH WIND       PRES   REMARKS
MANISTIQUE     FLURRIES  34  32  94 CALM      29.56S
6HR MIN TEMP:  33; 6HR MAX TEMP:  36;

ESCANABA       CLOUDY    34  30  86 SW3       29.56S
6HR MIN TEMP:  34; 6HR MAX TEMP:  37;

MENOMINEE      CLOUDY    36  28  75 CALM      29.56S
6HR MIN TEMP:  36; 6HR MAX TEMP:  37;

SAWYER-GWINN   LGT SNOW  31  31 100 SW5       29.52S WCI  26
6HR MIN TEMP:  31; 6HR MAX TEMP:  32;

$$
MIZ001>003-009>011-084-080700-
WESTERN UPPER MICHIGAN

CITY           SKY/WX    TMP DP  RH WIND       PRES   REMARKS
IRON MOUNTAIN  CLOUDY    32  29  88 SW5       29.52S FOG     WCI  27
6HR MIN TEMP:  32; 6HR MAX TEMP:  35; 6HR PCP: TRACE;

HOUGHTON       LGT SNOW  29  26  89 NE13      29.52R FOG     WCI  19
6HR MIN TEMP:  29; 6HR MAX TEMP:  32; 6HR PCP:  0.02;

COPPER HARBOR    N/A     31  30  96 NE20      29.54R WCI  19
6HR MIN TEMP:  31; 6HR MAX TEMP:  33; 6HR PCP:  0.05;

IRONWOOD       CLOUDY    28  25  86 CALM      29.50R
6HR MIN TEMP:  28; 6HR MAX TEMP:  34;

$$

ABBREVIATIONS USED IN REMARKS
   TC - TEMPERATURE IN CELSIUS
  WCI - WIND CHILL INDEX
   HX - HEAT INDEX
  VSB - VISIBILITY





USA.gov is the U.S. government's official web portal to all federal, state and local government web resources and services.